FW8343 Weather Reports


time (UTC)temp
C
wind
direction
speed
KPH
gust
KPH
rain 1hr
cm
rain 24hr
cm
rain mn
cm
humidity
%
barometer
mb
20260905104020 17 0 0.0 0.0 0.00 0.00 0.00 100 1018.3
20260905103519 17 0 0.0 1.6 0.00 0.00 0.00 100 1018.3
20260905103044 17 0 0.0 1.6 0.00 0.00 0.00 100 1018.2
20260905102519 17 0 0.0 0.0 0.00 0.00 0.00 100 1018.3
20260905102019 17 0 0.0 0.0 0.00 0.00 0.00 100 1018.4
20260905101537 17 0 0.0 0.0 0.00 0.00 0.00 100 1018.4
20260905101019 17 0 0.0 0.0 0.00 0.00 0.00 99 1018.5
20260905100519 17 0 0.0 0.0 0.00 0.00 0.00 99 1018.5
20260905100040 17 0 0.0 0.0 0.00 0.00 0.00 99 1018.5
20260905095521 17 0 0.0 0.0 0.00 0.00 0.00 99 1018.6
20260905095020 17 0 0.0 0.0 0.00 0.00 0.00 99 1018.6
20260905094537 17 0 0.0 0.0 0.00 0.00 0.00 99 1018.5
20260905094019 17 0 0.0 0.0 0.00 0.00 0.00 99 1018.5
20260905093522 17 0 0.0 0.0 0.00 0.00 0.00 99 1018.5
20260905093048 17 0 0.0 0.0 0.00 0.00 0.00 99 1018.5
20260905092521 17 0 0.0 0.0 0.00 0.00 0.00 99 1018.7
20260905092019 17 0 0.0 1.6 0.00 0.00 0.00 99 1018.6
20260905091537 17 0 0.0 1.6 0.00 0.00 0.00 99 1018.6
20260905091022 17 0 0.0 1.6 0.00 0.00 0.00 99 1018.6
20260905090518 17 0 0.0 1.6 0.00 0.00 0.00 99 1018.6
20260905090038 17 0 0.0 0.0 0.00 0.00 0.00 99 1018.7
20260905085521 17 0 0.0 3.2 0.00 0.00 0.00 99 1018.8
20260905085018 17 0 0.0 3.2 0.00 0.00 0.00 99 1018.8
20260905084536 17 0 0.0 0.0 0.00 0.00 0.00 99 1018.8
20260905084021 17 0 0.0 0.0 0.00 0.00 0.00 99 1018.7
20260905083520 17 0 0.0 1.6 0.00 0.00 0.00 99 1018.7
20260905083034 17 0 0.0 1.6 0.00 0.00 0.00 99 1018.8
20260905082521 17 0 0.0 0.0 0.00 0.00 0.00 99 1018.8
20260905082021 17 0 0.0 0.0 0.00 0.00 0.00 100 1018.8
20260905081536 17 0 0.0 0.0 0.00 0.00 0.00 99 1018.7
20260905081019 17 0 0.0 0.0 0.00 0.00 0.00 99 1018.7
20260905080519 17 0 0.0 0.0 0.00 0.00 0.00 99 1018.7
20260905080040 17 0 0.0 0.0 0.00 0.00 0.00 99 1018.6
20260905075518 17 0 0.0 0.0 0.00 0.00 0.00 99 1018.7
20260905075021 17 0 0.0 0.0 0.00 0.00 0.00 99 1018.7
20260905074534 17 0 0.0 0.0 0.00 0.00 0.00 99 1018.7
20260905074019 17 0 0.0 0.0 0.00 0.00 0.00 99 1018.7
20260905073524 17 0 0.0 0.0 0.00 0.00 0.00 99 1018.7
20260905073034 17 0 0.0 0.0 0.00 0.00 0.00 99 1018.7
20260905072521 17 0 0.0 0.0 0.00 0.00 0.00 99 1018.7
20260905072019 17 0 0.0 0.0 0.00 0.00 0.00 99 1018.5
20260905071537 17 0 0.0 0.0 0.00 0.00 0.00 99 1018.5
20260905071024 17 0 0.0 0.0 0.00 0.00 0.00 99 1018.5
20260905070520 17 0 0.0 0.0 0.00 0.00 0.00 99 1018.5
20260905070037 17 0 0.0 0.0 0.00 0.00 0.00 99 1018.5
20260905065517 17 0 0.0 0.0 0.00 0.00 0.00 99 1018.6
20260905065018 17 0 0.0 0.0 0.00 0.00 0.00 99 1018.5
20260905064536 17 0 0.0 0.0 0.00 0.00 0.00 99 1018.4
20260905064023 17 0 0.0 0.0 0.00 0.00 0.00 99 1018.4
20260905063520 17 0 0.0 0.0 0.00 0.00 0.00 99 1018.4
20260905063034 17 0 0.0 0.0 0.00 0.00 0.00 99 1018.4
20260905062520 17 0 0.0 0.0 0.00 0.00 0.00 99 1018.6
20260905062020 17 0 0.0 1.6 0.00 0.00 0.00 99 1018.5
20260905061536 17 0 0.0 1.6 0.00 0.00 0.00 99 1018.5
20260905061020 17 0 0.0 0.0 0.00 0.00 0.00 99 1018.5
20260905060520 17 0 0.0 1.6 0.00 0.00 0.00 99 1018.4
20260905060033 17 0 0.0 1.6 0.00 0.00 0.00 99 1018.4
20260905055519 17 344 0.0 1.6 0.00 0.00 0.00 99 1018.4
20260905055020 17 0 0.0 0.0 0.00 0.00 0.00 99 1018.3
20260905054536 17 0 0.0 0.0 0.00 0.00 0.00 99 1018.3
20260905054016 17 0 0.0 0.0 0.00 0.00 0.00 99 1018.2
20260905053521 17 0 0.0 0.0 0.00 0.00 0.00 99 1018.2
20260905053036 17 0 0.0 0.0 0.00 0.00 0.00 99 1018.2
20260905052519 17 0 0.0 0.0 0.00 0.00 0.00 99 1018.3
20260905052023 17 0 0.0 0.0 0.00 0.00 0.00 99 1018.3
20260905051533 17 0 0.0 3.2 0.00 0.00 0.00 99 1018.3
20260905051019 17 0 0.0 3.2 0.00 0.00 0.00 99 1018.4
20260905050522 17 344 0.0 3.2 0.00 0.00 0.00 99 1018.4
20260905050037 17 0 0.0 1.6 0.00 0.00 0.00 99 1018.4
20260905045518 17 0 0.0 4.8 0.00 0.00 0.00 99 1018.4
20260905045019 17 0 0.0 4.8 0.00 0.00 0.00 99 1018.3
20260905044543 17 0 0.0 4.8 0.00 0.00 0.00 99 1018.3
20260905044021 17 0 0.0 3.2 0.00 0.00 0.00 98 1018.3
20260905043520 17 0 0.0 4.8 0.00 0.00 0.00 98 1018.3
20260905043047 17 0 0.0 4.8 0.00 0.00 0.00 98 1018.3
20260905042519 17 344 0.0 3.2 0.00 0.00 0.00 98 1018.4
20260905042021 17 0 0.0 3.2 0.00 0.00 0.00 98 1018.4
20260905041534 17 0 0.0 0.0 0.00 0.00 0.00 98 1018.3
20260905041020 17 0 0.0 0.0 0.00 0.00 0.00 98 1018.4
20260905040520 17 0 0.0 0.0 0.00 0.00 0.00 98 1018.4
20260905040037 17 0 0.0 0.0 0.00 0.00 0.00 98 1018.3
20260905035518 17 0 0.0 0.0 0.00 0.00 0.00 98 1018.4
20260905035017 17 0 0.0 0.0 0.00 0.00 0.00 98 1018.4
20260905034537 17 0 0.0 0.0 0.00 0.00 0.00 98 1018.3
20260905034020 17 0 0.0 1.6 0.00 0.00 0.00 98 1018.4
20260905033521 17 0 0.0 1.6 0.00 0.00 0.00 98 1018.4
20260905033035 17 0 0.0 3.2 0.00 0.00 0.00 98 1018.4
20260905032520 17 0 0.0 3.2 0.00 0.00 0.00 98 1018.4
20260905032023 17 0 0.0 0.0 0.00 0.00 0.00 98 1018.4
20260905031542 17 0 0.0 0.0 0.00 0.00 0.00 98 1018.5
20260905031020 17 0 0.0 0.0 0.00 0.00 0.00 98 1018.4
20260905030520 17 0 0.0 0.0 0.00 0.00 0.00 97 1018.4
20260905030037 17 0 0.0 0.0 0.00 0.00 0.00 97 1018.3
20260905025517 17 0 0.0 0.0 0.00 0.00 0.00 97 1018.4
20260905025020 17 0 0.0 0.0 0.00 0.00 0.00 97 1018.3
20260905024534 17 0 0.0 0.0 0.00 0.00 0.00 97 1018.4
20260905024020 17 0 0.0 0.0 0.00 0.00 0.00 97 1018.2
20260905023520 17 0 0.0 1.6 0.00 0.00 0.00 97 1018.1
20260905023035 17 0 0.0 3.2 0.00 0.00 0.00 97 1018.1
20260905022518 17 0 0.0 3.2 0.00 0.00 0.00 97 1018.1
20260905022018 18 0 0.0 3.2 0.00 0.00 0.00 97 1018.1
20260905021537 18 0 0.0 3.2 0.00 0.00 0.00 97 1018.1
20260905021022 18 0 0.0 3.2 0.00 0.00 0.00 97 1018.1
20260905020523 18 299 0.0 1.6 0.00 0.00 0.00 97 1018.0
20260905020046 18 0 0.0 0.0 0.00 0.00 0.00 97 1018.1
20260905015521 18 0 0.0 0.0 0.00 0.00 0.00 97 1018.1
20260905015023 18 0 0.0 0.0 0.00 0.00 0.00 97 1018.1
20260905014533 18 0 0.0 0.0 0.00 0.00 0.00 97 1018.1
20260905014016 18 0 0.0 0.0 0.00 0.00 0.00 96 1018.1
20260905013519 18 0 0.0 0.0 0.00 0.00 0.00 96 1018.1
20260905013046 18 0 0.0 0.0 0.00 0.00 0.00 96 1018.0
20260905012523 18 0 0.0 0.0 0.00 0.00 0.00 96 1018.0
20260905012023 18 0 0.0 1.6 0.00 0.00 0.00 96 1018.0
20260905011605 18 0 0.0 1.6 0.00 0.00 0.00 96 1018.0
20260905011020 18 0 0.0 3.2 0.00 0.00 0.00 95 1017.9
20260905010520 18 0 0.0 3.2 0.00 0.00 0.00 95 1017.6
20260905010033 18 0 0.0 0.0 0.00 0.00 0.00 95 1017.5
20260905005521 18 0 0.0 0.0 0.00 0.00 0.00 96 1017.5
20260905005021 18 0 0.0 0.0 0.00 0.00 0.00 96 1017.5
20260905004536 18 0 0.0 1.6 0.00 0.00 0.00 95 1017.5
20260905004018 18 0 0.0 1.6 0.00 0.00 0.00 95 1017.4
20260905003516 18 0 0.0 1.6 0.00 0.00 0.00 95 1017.5
20260905003037 18 0 0.0 3.2 0.00 0.00 0.00 95 1017.3
20260905002520 18 0 0.0 4.8 0.00 0.00 0.00 94 1017.3
20260905002021 18 0 0.0 4.8 0.00 0.00 0.00 94 1017.2
20260905001545 18 0 0.0 4.8 0.00 0.00 0.00 94 1017.3
20260905001022 18 0 0.0 3.2 0.00 0.00 0.00 94 1017.3
20260905000520 18 0 0.0 3.2 0.00 0.00 0.00 94 1017.2
20260905000037 18 0 0.0 3.2 0.00 0.00 0.00 93 1017.2
20260904235517 18 0 0.0 6.4 0.00 0.00 0.00 94 1017.2
20260904235025 18 0 0.0 6.4 0.00 0.00 0.00 94 1017.3
20260904234538 18 0 0.0 3.2 0.00 0.00 0.00 94 1017.2
20260904234016 19 0 0.0 1.6 0.00 0.00 0.00 94 1017.2
20260904233516 19 0 0.0 1.6 0.00 0.00 0.00 94 1017.1
20260904233035 19 291 0.0 3.2 0.00 0.00 0.00 93 1017.1
20260904232520 19 0 0.0 3.2 0.00 0.00 0.00 93 1017.2
20260904232021 19 0 0.0 3.2 0.00 0.00 0.00 93 1017.2
20260904231535 19 0 0.0 3.2 0.00 0.00 0.00 93 1017.1
20260904231021 19 0 0.0 3.2 0.00 0.00 0.00 93 1017.0
20260904230521 19 0 0.0 3.2 0.00 0.00 0.00 93 1016.9
20260904230038 19 0 0.0 4.8 0.00 0.00 0.00 94 1016.9
20260904225522 19 0 0.0 4.8 0.00 0.00 0.00 94 1016.8
20260904225020 19 0 0.0 3.2 0.00 0.00 0.00 94 1016.7
20260904224536 19 0 0.0 4.8 0.00 0.00 0.00 94 1016.7
20260904224018 19 0 0.0 4.8 0.00 0.00 0.00 94 1016.8
20260904223518 19 0 0.0 4.8 0.00 0.00 0.00 94 1016.7
20260904223034 19 291 0.0 4.8 0.00 0.00 0.00 94 1016.8
20260904222516 19 0 0.0 4.8 0.00 0.00 0.00 94 1016.7
20260904222017 19 0 0.0 4.8 0.00 0.00 0.00 94 1016.7
20260904221534 20 308 0.0 4.8 0.00 0.00 0.00 94 1016.6
20260904221020 20 0 0.0 4.8 0.00 0.00 0.00 94 1016.5
20260904220521 20 175 0.0 4.8 0.00 0.00 0.00 93 1016.5
20260904220037 20 0 0.0 4.8 0.00 0.00 0.00 93 1016.4
20260904215520 20 0 0.0 4.8 0.00 0.00 0.00 93 1016.3
20260904215019 20 0 0.0 4.8 0.00 0.00 0.00 93 1016.3
20260904214537 20 0 0.0 4.8 0.00 0.00 0.00 92 1016.3
20260904214019 20 278 0.0 3.2 0.00 0.00 0.00 91 1016.3
20260904213518 21 0 0.0 3.2 0.00 0.00 0.00 91 1016.2
20260904213036 21 0 0.0 3.2 0.00 0.00 0.00 91 1016.2
20260904212519 21 0 0.0 3.2 0.00 0.00 0.00 91 1016.2
20260904212023 21 0 0.0 1.6 0.00 0.00 0.00 91 1016.2
20260904211534 21 0 0.0 1.6 0.00 0.00 0.00 91 1016.1
20260904211021 21 0 0.0 3.2 0.00 0.00 0.00 91 1016.1
20260904210520 21 0 0.0 3.2 0.00 0.00 0.00 90 1015.9
20260904210036 21 0 0.0 3.2 0.00 0.00 0.00 90 1016.1
20260904205525 21 0 0.0 3.2 0.00 0.00 0.00 90 1016.0
20260904205021 22 0 0.0 3.2 0.00 0.00 0.00 91 1016.0
20260904204537 22 0 0.0 4.8 0.00 0.00 0.00 91 1015.9
20260904204020 22 0 0.0 4.8 0.00 0.00 0.00 91 1015.8
20260904203519 22 0 0.0 3.2 0.00 0.00 0.00 90 1015.9
20260904203037 22 271 0.0 3.2 0.00 0.00 0.00 91 1015.8
20260904202518 22 0 0.0 1.6 0.00 0.00 0.00 90 1015.8
20260904202017 22 0 0.0 1.6 0.00 0.00 0.00 90 1015.8
20260904201534 22 0 0.0 4.8 0.00 0.00 0.00 90 1015.8
20260904201017 22 0 0.0 6.4 0.00 0.00 0.00 90 1015.8
20260904200521 22 0 0.0 6.4 0.00 0.00 0.00 90 1015.9
20260904200036 22 0 0.0 6.4 0.00 0.00 0.00 89 1015.9
20260904195521 22 0 0.0 3.2 0.00 0.00 0.00 89 1015.9
20260904195019 22 0 0.0 3.2 0.00 0.00 0.00 90 1015.8
20260904194539 22 0 0.0 3.2 0.00 0.00 0.00 90 1015.7
20260904194020 22 0 0.0 3.2 0.00 0.00 0.00 91 1015.8
20260904193519 22 0 0.0 3.2 0.00 0.00 0.00 91 1015.8
20260904193034 22 0 0.0 3.2 0.00 0.00 0.00 90 1015.6
20260904192517 22 0 0.0 4.8 0.00 0.00 0.00 91 1015.7
20260904192020 22 0 0.0 4.8 0.00 0.00 0.00 91 1015.7
20260904191535 22 0 0.0 4.8 0.00 0.00 0.00 90 1015.7
20260904191020 22 0 0.0 3.2 0.00 0.00 0.00 90 1015.7
20260904190520 22 0 0.0 3.2 0.00 0.00 0.00 90 1015.6
20260904190035 22 0 0.0 6.4 0.00 0.00 0.00 89 1015.6
20260904185519 22 0 0.0 6.4 0.00 0.00 0.00 89 1015.5
20260904185018 23 0 0.0 6.4 0.00 0.00 0.00 89 1015.4
20260904184538 23 0 0.0 6.4 0.00 0.00 0.00 89 1015.4
20260904184017 23 0 0.0 4.8 0.00 0.00 0.00 89 1015.3
20260904183521 23 0 0.0 4.8 0.00 0.00 0.00 89 1015.3
20260904183040 22 0 0.0 6.4 0.00 0.00 0.00 89 1015.2
20260904182520 23 0 0.0 6.4 0.00 0.00 0.00 89 1015.3
20260904182025 23 311 0.0 6.4 0.00 0.00 0.00 89 1015.3
20260904181552 22 0 0.0 4.8 0.00 0.00 0.00 91 1015.3
20260904181021 22 0 0.0 4.8 0.00 0.00 0.00 92 1015.3
20260904180522 22 0 0.0 4.8 0.00 0.00 0.00 91 1015.3
20260904180039 22 352 0.0 4.8 0.00 0.00 0.00 92 1015.3
20260904175516 22 0 0.0 0.0 0.00 0.00 0.00 93 1015.3
20260904175018 22 0 0.0 3.2 0.00 0.00 0.00 94 1015.3
20260904174534 22 0 0.0 3.2 0.00 0.00 0.00 94 1015.2
20260904174021 21 0 0.0 0.0 0.00 0.00 0.00 95 1015.2
20260904173520 21 0 0.0 0.0 0.00 0.00 0.00 95 1015.3
20260904173036 21 0 0.0 0.0 0.00 0.00 0.00 96 1015.2
20260904172520 21 0 0.0 1.6 0.00 0.00 0.00 95 1015.2
20260904172025 21 0 0.0 1.6 0.00 0.00 0.00 95 1015.2
20260904171540 21 0 0.0 0.0 0.00 0.00 0.00 96 1015.3
20260904171020 21 0 0.0 0.0 0.00 0.00 0.00 96 1015.2
20260904170516 21 0 0.0 0.0 0.00 0.00 0.00 96 1015.2
20260904170035 20 0 0.0 0.0 0.00 0.00 0.00 97 1015.2
20260904165522 20 0 0.0 1.6 0.00 0.00 0.00 97 1015.2
20260904165019 20 0 0.0 3.2 0.00 0.00 0.00 97 1015.2
20260904164541 20 0 0.0 3.2 0.00 0.00 0.00 97 1015.4
20260904164021 20 0 0.0 4.8 0.00 0.00 0.00 97 1015.4
20260904163522 20 0 1.6 4.8 0.00 0.00 0.00 98 1015.3
20260904163035 20 0 0.0 3.2 0.00 0.00 0.00 98 1015.3
20260904162520 20 0 0.0 3.2 0.00 0.00 0.00 98 1015.4
20260904162020 20 0 0.0 3.2 0.00 0.00 0.00 98 1015.4
20260904161535 20 323 0.0 4.8 0.00 0.00 0.00 98 1015.4
20260904161019 20 0 0.0 4.8 0.00 0.00 0.00 98 1015.4
20260904160519 19 0 0.0 3.2 0.00 0.00 0.00 98 1015.3
20260904160036 19 0 0.0 3.2 0.00 0.00 0.00 99 1015.5
20260904155516 19 0 0.0 3.2 0.00 0.00 0.00 99 1015.4
20260904155017 19 0 0.0 0.0 0.00 0.00 0.00 99 1015.4
20260904154545 19 0 0.0 0.0 0.00 0.00 0.00 99 1015.3
20260904154023 19 0 0.0 1.6 0.00 0.00 0.00 98 1015.2
20260904153520 19 0 0.0 1.6 0.00 0.00 0.00 98 1015.2
20260904153036 19 0 0.0 1.6 0.00 0.00 0.00 99 1015.1
20260904152524 19 0 0.0 3.2 0.00 0.00 0.00 99 1015.1
20260904152019 19 0 0.0 3.2 0.00 0.00 0.00 99 1015.1
20260904151538 18 0 0.0 3.2 0.00 0.00 0.00 99 1015.0
20260904151017 18 0 0.0 3.2 0.00 0.00 0.00 99 1015.0
20260904150518 18 0 0.0 1.6 0.00 0.00 0.00 99 1015.0
20260904150035 18 0 0.0 1.6 0.00 0.00 0.00 99 1014.9
20260904145516 18 0 0.0 1.6 0.00 0.00 0.00 99 1014.8
20260904145020 18 0 0.0 1.6 0.00 0.00 0.00 99 1014.7
20260904144535 18 0 0.0 1.6 0.00 0.00 0.00 98 1014.7
20260904144024 18 0 0.0 3.2 0.00 0.00 0.00 98 1014.6
20260904143520 18 0 0.0 3.2 0.00 0.00 0.00 99 1014.6
20260904143036 18 0 0.0 3.2 0.00 0.00 0.00 99 1014.5
20260904142520 18 0 0.0 1.6 0.00 0.00 0.00 98 1014.4
20260904142028 18 0 0.0 1.6 0.00 0.00 0.00 98 1014.4
20260904141542 18 0 0.0 1.6 0.00 0.00 0.00 98 1014.3
20260904141020 18 0 0.0 1.6 0.00 0.00 0.00 98 1014.3
20260904140519 18 0 0.0 1.6 0.00 0.00 0.00 98 1014.4
20260904140044 18 0 0.0 3.2 0.00 0.00 0.00 98 1014.3
20260904135521 19 0 0.0 4.8 0.00 0.00 0.00 98 1014.2
20260904135020 19 0 1.6 4.8 0.00 0.00 0.00 98 1014.2
20260904134534 20 323 0.0 0.0 0.00 0.00 0.00 99 1014.1
20260904134017 20 0 0.0 0.0 0.00 0.00 0.00 99 1014.1
20260904133522 20 0 0.0 0.0 0.00 0.00 0.00 99 1014.1
20260904133037 20 0 0.0 0.0 0.00 0.00 0.00 99 1014.0
20260904132520 20 0 0.0 4.8 0.00 0.00 0.00 99 1013.9
20260904132020 20 0 0.0 4.8 0.00 0.00 0.00 99 1013.8
20260904131533 20 0 1.6 4.8 0.00 0.00 0.00 99 1013.8
20260904131022 20 145 0.0 3.2 0.00 0.00 0.00 99 1013.7
20260904130519 20 0 0.0 11.3 0.00 0.00 0.00 99 1013.6
20260904130035 20 0 1.6 11.3 0.00 0.00 0.00 99 1013.6
20260904125518 20 134 4.8 11.3 0.00 0.00 0.00 99 1013.4
20260904125016 20 167 3.2 12.9 0.00 0.00 0.00 99 1013.4
20260904124535 20 148 3.2 12.9 0.00 0.00 0.00 99 1013.3
20260904124016 20 0 3.2 12.9 0.00 0.00 0.00 99 1013.2
20260904123522 20 116 4.8 8.0 0.00 0.00 0.00 99 1013.1
20260904123035 20 151 1.6 6.4 0.00 0.00 0.00 99 1013.1
20260904122523 20 132 1.6 6.4 0.00 0.00 0.00 99 1013.0
20260904122020 20 123 1.6 6.4 0.00 0.00 0.00 99 1012.9
20260904121534 20 123 0.0 6.4 0.00 0.00 0.00 99 1012.9
20260904121020 20 123 1.6 6.4 0.00 0.00 0.00 99 1012.8
20260904120520 20 116 3.2 6.4 0.00 0.00 0.00 99 1012.8
20260904120046 20 142 3.2 6.4 0.00 0.00 0.00 99 1012.7
20260904115518 19 123 1.6 6.4 0.00 0.00 0.00 98 1012.7
20260904115017 19 123 1.6 6.4 0.00 0.00 0.00 98 1012.7
20260904114536 19 123 0.0 4.8 0.00 0.00 0.00 98 1012.8
20260904114020 19 123 1.6 4.8 0.00 0.00 0.00 98 1012.8
20260904113520 19 123 1.6 6.4 0.00 0.00 0.00 98 1012.6
20260904113041 19 0 1.6 6.4 0.00 0.00 0.00 98 1012.7
20260904112520 19 105 1.6 9.7 0.00 0.00 0.00 98 1012.6
20260904112019 19 126 3.2 9.7 0.00 0.00 0.00 98 1012.6
20260904111537 19 128 3.2 8.0 0.00 0.00 0.00 98 1012.5
20260904111021 19 112 3.2 8.0 0.00 0.00 0.00 98 1012.6
20260904110520 18 157 1.6 8.0 0.00 0.00 0.00 98 1012.5
20260904110033 18 148 3.2 8.0 0.00 0.00 0.00 98 1012.5
20260904105520 18 0 1.6 8.0 0.00 0.00 0.00 98 1012.5
20260904105017 18 128 1.6 4.8 0.00 0.00 0.00 98 1012.4
20260904104548 18 0 0.0 4.8 0.00 0.00 0.00 97 1012.5